Temperature
-1 -0 -1 -1 -0 -1 -1 -1 -1 0 -1 0 -0 -2 -1 -1 -0 -0 -0 -0 -0 -0 -0 0 0 0 0 0 0 0 0 0 0 -0 -0 -0 -0 -0 -0 -0 -0 -0 -0 -0
-2 -1 -1 -1 -1 -1 -1 -1 -2 -1 -1 -1 -2 -2 -2 -2 -2 -2 -2 -1 -1 -1 -1 -1 -0 -0 -0 -0 -0 -1 -1 -1 -1 -1 -1 -1 -1 -1 -1 -1 -1 -1 -1 -1
-2 -2 -2 -1 -1 -1 -2 -2 -2 -1 -0 -2 -3 -4 -4 -3 -3 -3 -3 -2 -2 -2 -2 -2 -1 -1 -1 -1 -1 -1 -1 -1 -2 -2 -2 -2 -2 -2 -2 -2 -2 -2 -2 -2
-3 -2 -1 -0 -3 -3 -2 -3 -4 -3 -3 -4 -4 -4 -4 -4 -4 -4 -4 -3 -3 -3 -2 -2 -2 -2 -2 -2 -2 -2 -2 -2 -2 -2 -2 -2 -3 -3 -3 -3 -3 -3 -3 -2
-3 -3 -2 -2 -3 -4 -4 -3 -4 -4 -4 -4 -5 -5 -4 -4 -4 -4 -4 -4 -4 -4 -3 -3 -3 -3 -3 -3 -3 -3 -3 -3 -3 -3 -3 -3 -3 -3 -3 -3 -3 -3 -3 -3
-4 -3 -2 -2 -4 -5 -4 -3 -4 -5 -5 -5 -5 -4 -4 -4 -4 -4 -4 -4 -4 -4 -4 -4 -4 -4 -4 -3 -3 -3 -3 -3 -4 -4 -4 -4 -4 -4 -4 -4 -4 -4 -4 -4
-4 -4 -3 -4 -6 -4 -3 -2 -4 -4 -5 -6 -6 -5 -4 -4 -5 -5 -5 -5 -5 -5 -4 -5 -5 -5 -5 -4 -4 -4 -4 -4 -4 -5 -5 -5 -5 -5 -5 -5 -5 -5 -5 -5
-5 -4 -3 -5 -6 -4 -3 -4 -4 -4 -5 -5 -5 -5 -5 -5 -5 -5 -5 -5 -5 -5 -5 -5 -5 -5 -5 -5 -5 -5 -5 -5 -5 -5 -5 -5 -5 -5 -5 -6 -6 -6 -6 -5
-5 -3 -4 -5 -4 -4 -4 -5 -5 -5 -5 -5 -6 -6 -6 -6 -6 -6 -6 -6 -6 -6 -6 -6 -6 -6 -6 -6 -6 -6 -6 -6 -6 -6 -6 -6 -6 -6 -6 -6 -6 -6 -6 -6
-7 -6 -6 -5 -5 -4 -5 -5 -5 -5 -6 -6 -6 -7 -7 -7 -7 -7 -7 -7 -7 -7 -7 -7 -7 -7 -7 -7 -7 -7 -7 -7 -7 -7 -7 -7 -7 -7 -7 -7 -7 -7 -7 -7
-7 -7 -7 -6 -5 -5 -5 -6 -6 -6 -7 -7 -7 -7 -8 -8 -8 -8 -8 -8 -8 -8 -8 -8 -8 -8 -8 -8 -8 -8 -8 -8 -8 -8 -8 -8 -8 -8 -8 -8 -8 -8 -8 -8
-5 -6 -7 -6 -6 -6 -6 -7 -7 -7 -8 -8 -8 -9 -9 -9 -9 -9 -9 -9 -9 -9 -9 -9 -9 -9 -9 -9 -9 -9 -9 -9 -9 -9 -9 -9 -9 -9 -8 -9 -8 -8 -8 -8
-6 -6 -6 -7 -7 -7 -7 -8 -8 -8 -9 -9 -9 -9 -9 -10 -10 -10 -10 -10 -10 -10 -10 -10 -10 -10 -10 -10 -10 -10 -10 -10 -10 -10 -10 -10 -10 -10 -9 -9 -9 -9 -9 -9
-7 -7 -8 -8 -8 -8 -8 -9 -9 -9 -9 -10 -10 -10 -10 -10 -11 -11 -11 -11 -11 -11 -11 -11 -11 -11 -11 -11 -11 -11 -11 -11 -11 -11 -11 -11 -11 -11 -11 -11 -10 -10 -10 -10
-8 -8 -8 -9 -9 -9 -9 -10 -10 -10 -10 -10 -11 -11 -11 -11 -11 -11 -12 -12 -12 -12 -12 -11 -11 -11 -11 -11 -11 -11 -11 -11 -12 -12 -12 -12 -12 -12 -12 -12 -11 -11 -11 -10
-9 -9 -9 -10 -10 -10 -10 -10 -10 -10 -11 -11 -11 -12 -12 -12 -12 -12 -12 -12 -12 -12 -12 -12 -12 -12 -12 -12 -12 -12 -12 -12 -12 -12 -12 -12 -12 -12 -12 -12 -12 -12 -12 -11
-10 -10 -10 -11 -11 -11 -11 -11 -11 -11 -12 -12 -12 -12 -12 -12 -13 -13 -13 -13 -13 -13 -13 -13 -13 -13 -13 -13 -13 -13 -13 -13 -13 -13 -13 -13 -13 -13 -13 -13 -13 -13 -12 -12
-10 -10 -10 -11 -11 -11 -11 -12 -12 -12 -12 -12 -13 -13 -13 -13 -13 -13 -13 -14 -13 -13 -13 -14 -13 -13 -13 -13 -13 -13 -13 -13 -13 -13 -13 -13 -13 -13 -13 -13 -13 -13 -13 -13
-11 -11 -11 -11 -12 -12 -12 -12 -12 -13 -13 -13 -13 -13 -14 -14 -14 -14 -14 -14 -14 -14 -14 -14 -14 -14 -14 -14 -14 -14 -14 -14 -14 -14 -14 -14 -14 -14 -14 -14 -14 -13 -13 -13
-12 -12 -12 -12 -12 -12 -12 -13 -13 -13 -13 -14 -14 -14 -14 -14 -14 -14 -14 -14 -15 -15 -15 -15 -15 -14 -14 -14 -14 -14 -14 -14 -14 -14 -14 -14 -14 -14 -14 -14 -14 -14 -14 -14
-12 -12 -13 -13 -13 -13 -13 -13 -13 -13 -14 -14 -14 -14 -15 -15 -15 -15 -15 -15 -15 -15 -15 -15 -15 -15 -15 -15 -15 -15 -15 -15 -15 -15 -15 -15 -15 -15 -15 -14 -14 -14 -14 -14
-12 -13 -13 -13 -13 -13 -13 -14 -14 -14 -14 -14 -15 -15 -15 -15 -15 -15 -15 -15 -15 -15 -15 -15 -15 -15 -15 -15 -15 -15 -15 -15 -15 -15 -15 -15 -15 -15 -15 -15 -15 -15 -15 -15
-13 -13 -13 -14 -14 -14 -14 -14 -14 -14 -15 -15 -15 -15 -15 -15 -16 -16 -16 -16 -16 -16 -16 -16 -16 -16 -16 -16 -16 -16 -16 -16 -16 -16 -16 -16 -16 -16 -16 -15 -15 -15 -15 -15
-13 -13 -14 -14 -14 -14 -14 -14 -14 -15 -15 -15 -15 -15 -16 -16 -16 -16 -16 -16 -16 -16 -16 -16 -16 -16 -16 -16 -16 -16 -16 -16 -16 -16 -16 -16 -16 -16 -16 -16 -16 -16 -16 -16
-14 -14 -14 -14 -14 -14 -14 -15 -15 -15 -15 -15 -15 -16 -16 -16 -16 -16 -16 -16 -16 -16 -16 -16 -16 -16 -16 -16 -16 -16 -16 -16 -16 -16 -16 -16 -16 -16 -16 -16 -16 -16 -16 -16
-14 -14 -14 -14 -15 -15 -15 -15 -15 -15 -15 -15 -15 -16 -16 -16 -16 -16 -16 -16 -16 -16 -16 -16 -16 -16 -16 -16 -16 -16 -16 -16 -16 -16 -16 -16 -16 -16 -16 -16 -16 -16 -16 -16
-14 -14 -14 -15 -15 -15 -15 -15 -15 -15 -15 -16 -16 -16 -16 -16 -16 -16 -16 -16 -16 -17 -17 -17 -17 -17 -17 -17 -17 -17 -17 -17 -17 -17 -17 -17 -17 -17 -17 -17 -17 -16 -16 -16
Wind_Speed
7 5 4 7 9 10 12 11 11 11 11 14 9 7 7 6 4 4 5 5 5 4 4 4 4 4 4 4 4 3 3 4 5 5 4 4 4 4 4 4 5 5 5 5
5 5 6 9 12 13 14 11 12 12 15 11 6 4 5 5 5 5 6 6 5 4 4 4 5 5 5 4 4 3 4 5 4 3 4 4 4 4 4 4 4 4 5 5
5 3 3 9 10 13 9 9 9 13 13 6 4 5 5 5 4 5 6 5 5 5 5 5 5 5 5 5 4 3 4 4 3 3 4 4 3 4 4 4 4 4 5 5
2 1 8 7 1 5 8 7 8 8 7 4 4 4 4 4 4 5 6 6 5 5 5 5 5 4 4 4 3 3 3 3 3 3 3 3 3 4 4 4 4 5 5 5
2 4 8 7 3 3 5 7 6 8 7 5 2 3 4 3 2 3 5 5 5 5 5 5 5 4 3 3 3 2 3 3 3 3 3 3 4 4 4 4 4 4 5 5
3 4 7 6 2 2 2 5 4 5 6 4 1 3 5 3 3 4 4 5 5 5 5 4 4 3 3 3 3 3 4 4 3 3 3 4 4 4 3 3 4 4 4 4
6 6 8 6 2 3 3 6 2 3 3 2 3 4 3 3 3 4 5 5 5 5 4 4 4 3 3 4 4 5 4 4 3 3 3 3 3 3 2 3 3 3 3 3
5 6 9 3 5 6 6 2 1 1 1 2 3 3 3 3 4 5 5 6 6 5 5 5 5 3 4 5 5 4 4 4 3 3 2 2 2 2 2 2 3 3 3 3
9 9 4 5 5 3 1 2 2 1 1 1 2 3 3 3 3 4 5 5 5 5 6 6 5 4 4 6 5 4 3 4 4 4 3 2 2 2 2 2 2 3 3 3
5 8 5 5 4 3 2 2 2 1 1 1 2 3 3 3 3 4 4 5 5 5 5 6 6 5 5 5 5 4 4 4 4 3 3 3 2 2 2 2 2 3 3 4
6 6 5 5 4 3 2 1 1 2 2 1 1 3 3 3 3 3 4 4 4 4 5 6 6 6 6 6 5 4 4 3 3 3 3 3 3 2 3 3 4 4 4 4
7 5 5 4 1 1 1 1 2 1 2 3 1 2 2 2 2 3 3 4 4 4 5 6 6 6 7 6 5 4 4 4 3 3 3 3 3 3 4 4 5 6 5 5
4 2 2 2 1 1 0 1 1 1 1 2 2 1 1 2 3 3 3 4 4 5 5 5 6 6 6 6 5 4 4 4 3 3 3 3 3 3 4 4 4 5 5 5
1 1 1 1 1 1 1 1 2 2 2 1 1 2 1 2 3 4 4 4 4 4 5 5 5 6 6 5 5 4 4 4 4 3 3 3 3 3 3 3 4 4 5 6
1 1 2 0 1 2 1 1 2 2 2 3 2 2 2 2 3 4 5 5 4 4 5 5 5 7 6 5 5 4 4 3 3 3 3 3 3 3 3 3 3 4 4 5
0 1 1 0 0 1 1 1 1 2 2 2 2 2 2 2 3 4 4 4 4 5 5 5 6 6 5 5 5 4 4 6 5 3 3 3 3 3 3 3 3 3 3 4
2 1 1 2 2 2 2 2 2 2 2 2 2 2 2 2 3 4 4 4 3 4 5 5 6 6 5 5 4 3 4 5 6 4 3 3 3 3 3 3 3 3 3 4
2 2 3 3 3 2 2 2 1 1 2 2 1 1 1 2 3 4 5 5 4 5 5 6 6 5 5 4 3 3 3 3 3 3 3 3 3 3 3 3 3 4 4 4
1 1 1 1 1 2 2 1 1 1 1 1 1 2 2 3 3 4 4 4 4 5 6 6 8 6 5 6 5 2 3 3 3 3 3 5 5 3 3 3 3 4 4 4
0 0 0 0 0 1 1 1 1 1 1 1 1 2 3 3 3 3 3 3 3 4 6 6 5 4 4 5 6 2 2 3 3 3 3 3 3 4 4 4 4 4 4 4
1 0 0 0 0 0 1 1 1 1 2 1 2 2 3 4 3 2 2 4 5 5 5 7 4 4 3 4 4 2 2 3 3 3 3 3 4 4 4 4 4 4 4 3
1 1 1 1 0 1 1 1 1 1 2 2 2 2 3 3 3 3 3 4 5 8 5 3 4 6 6 5 2 2 2 2 3 3 3 3 3 4 4 4 4 4 4 3
1 1 1 1 1 1 2 1 1 2 2 3 3 3 3 4 3 3 4 4 4 7 5 3 6 8 7 3 2 2 3 3 3 3 3 3 3 4 4 4 4 4 4 4
1 1 1 1 1 1 1 2 2 2 3 3 3 3 3 3 3 3 4 7 8 8 4 6 9 9 6 2 2 2 3 3 3 4 4 3 3 3 4 4 4 4 4 4
2 1 1 2 2 2 2 2 2 2 2 2 3 3 3 3 3 4 4 4 7 7 4 6 9 8 4 2 3 3 3 3 4 4 3 4 4 4 4 4 4 4 4 4
2 2 2 3 3 2 2 2 2 2 2 3 3 3 3 3 3 3 3 4 5 6 5 4 4 5 3 3 3 4 4 5 5 4 4 4 4 4 4 4 5 5 5 5
1 1 1 2 2 2 2 2 3 3 3 3 4 3 3 3 3 3 4 4 4 4 4 4 3 3 3 3 4 4 4 4 4 4 4 4 4 4 5 5 5 5 5 5
Wind_Direction
261 264 232 233 232 211 213 220 229 251 254 269 273 268 275 278 282 287 286 283 281 281 281 284 284 280 274 274 277 272 260 251 238 235 231 228 225 223 224 226 226 222 225 229
274 262 251 261 249 229 229 233 241 261 268 268 278 285 287 291 287 287 287 289 293 296 300 298 295 293 288 279 279 268 253 255 250 238 233 230 228 225 227 230 229 225 225 225
261 289 313 266 238 219 219 218 214 240 255 283 299 292 282 286 292 289 289 297 303 308 305 306 302 296 286 279 279 260 253 258 250 235 236 237 235 230 231 233 229 229 227 226
249 353 244 248 219 208 218 241 234 248 268 274 259 282 289 295 293 299 306 309 312 313 311 309 306 304 301 296 284 264 263 264 266 250 243 242 234 237 241 240 232 232 232 229
199 245 273 290 253 180 203 267 239 239 264 273 286 325 314 307 296 286 298 304 305 306 306 309 309 310 315 318 309 292 279 278 277 267 251 243 242 243 248 241 239 237 236 228
193 226 249 264 263 208 135 283 247 213 249 266 339 301 287 318 339 333 331 325 320 321 324 324 324 329 335 327 323 304 296 288 282 266 255 247 247 249 252 244 243 242 245 231
216 235 262 263 237 135 178 257 266 206 229 204 217 237 278 332 343 346 343 336 334 334 336 332 334 344 335 329 312 307 312 305 291 275 266 256 251 248 242 242 235 237 248 241
189 217 253 207 145 188 229 296 286 243 211 211 250 292 318 332 338 345 345 344 345 344 341 342 348 350 333 322 317 320 321 317 312 302 293 283 253 254 237 222 230 236 242 249
200 219 247 182 204 237 286 271 280 264 273 222 267 290 309 322 330 339 343 342 343 343 341 346 352 349 327 321 326 326 329 325 327 329 319 296 257 246 241 226 230 242 243 249
247 258 255 253 268 286 278 261 280 281 286 265 264 282 304 317 334 340 339 339 341 345 343 340 345 346 331 328 336 338 329 327 331 334 329 322 303 275 255 245 249 251 250 253
250 271 296 270 248 254 275 324 341 336 326 296 284 298 306 318 327 332 333 337 342 340 333 331 338 340 339 339 344 344 340 335 336 336 332 333 325 301 279 259 256 257 253 250
237 231 218 254 274 229 224 285 305 330 341 351 340 305 326 323 321 328 331 336 340 339 334 332 337 338 340 341 340 337 337 339 338 336 334 334 331 327 315 301 294 287 276 267
239 259 237 263 322 347 287 316 335 335 310 320 337 339 337 325 327 336 336 338 334 329 327 329 333 334 337 339 338 335 327 328 328 329 331 329 327 324 325 328 322 316 311 296
257 216 256 251 266 345 20 7 19 21 5 354 341 353 358 343 337 339 333 331 329 330 329 330 333 330 331 335 338 336 329 325 329 324 324 321 319 317 314 314 320 324 323 319
287 208 203 181 44 32 30 38 33 8 3 3 7 358 354 343 331 327 327 331 338 339 335 337 336 330 333 336 339 335 331 328 326 325 323 320 322 322 318 317 316 319 326 324
202 46 108 145 236 333 5 354 294 302 323 334 338 335 331 325 319 322 329 337 341 333 330 331 328 327 333 335 339 338 331 330 336 333 334 334 330 326 323 318 317 319 317 315
163 226 235 257 260 264 251 246 246 259 282 295 303 316 328 340 340 334 331 331 322 312 317 321 320 325 331 331 335 335 331 331 338 339 335 328 324 319 315 311 308 306 305 308
205 211 208 218 230 244 268 273 266 271 272 277 300 321 322 314 308 312 318 327 331 330 327 322 321 329 332 333 341 336 332 330 331 328 326 323 324 322 321 316 310 309 313 315
207 212 211 222 219 212 230 255 272 282 287 271 285 291 290 288 288 296 310 326 331 326 322 320 334 343 335 332 343 336 336 333 330 327 325 326 334 332 325 320 318 317 315 315
155 98 120 70 78 160 218 250 250 279 282 263 280 295 299 296 295 298 303 301 289 284 293 309 322 325 325 325 339 339 338 330 328 328 328 331 329 327 326 323 320 318 317 317
224 193 167 183 318 302 239 221 221 268 289 269 249 266 279 290 292 290 295 304 306 301 304 318 329 319 316 324 336 339 334 330 328 325 324 324 324 323 323 322 321 319 318 318
217 198 203 198 194 309 305 270 234 250 276 282 277 275 285 294 297 295 276 271 290 311 323 314 314 316 327 338 348 343 333 326 321 320 318 318 318 318 318 318 316 315 315 315
215 206 209 220 228 266 302 288 249 244 256 264 266 266 272 277 279 283 295 292 294 309 321 307 311 319 332 355 356 336 322 315 309 306 305 306 306 306 307 309 309 309 309 308
207 208 223 215 176 206 277 285 280 270 266 271 265 258 261 281 287 271 268 296 310 314 315 311 321 324 335 356 331 315 306 301 297 294 295 296 296 296 296 298 300 303 303 301
211 207 196 195 219 242 253 268 285 284 284 288 286 278 271 262 264 280 288 293 305 316 314 315 321 328 337 317 305 298 294 288 286 289 288 292 292 292 292 292 291 293 295 293
211 223 231 234 237 239 238 240 259 269 276 289 296 291 290 287 280 283 289 293 296 311 315 309 309 313 310 300 295 293 290 295 302 300 290 287 286 286 287 287 286 285 283 283
226 234 241 258 252 236 233 237 249 260 263 268 283 285 287 293 294 295 297 299 302 305 304 303 301 296 293 292 291 289 287 286 286 285 285 283 282 280 278 277 279 279 279 279
Height
1484 1482 1483 1483 1482 1485 1485 1482 1482 1471 1471 1461 1461 1461 1459 1457 1456 1455 1454 1454 1453 1452 1452 1452 1452 1452 1452 1451 1452 1452 1452 1452 1452 1453 1454 1455 1455 1456 1457 1458 1458 1459 1460 1461
1484 1480 1481 1479 1475 1476 1476 1476 1475 1471 1465 1457 1458 1458 1456 1455 1454 1453 1452 1451 1450 1449 1449 1448 1447 1447 1447 1446 1447 1447 1447 1447 1447 1448 1448 1449 1449 1450 1451 1452 1452 1453 1454 1455
1484 1483 1480 1475 1467 1467 1468 1467 1468 1465 1457 1455 1457 1456 1454 1453 1452 1451 1450 1448 1447 1446 1445 1444 1443 1443 1443 1442 1442 1442 1442 1442 1442 1442 1442 1443 1444 1445 1445 1446 1446 1447 1447 1448
1487 1485 1480 1461 1462 1461 1461 1461 1461 1458 1455 1455 1454 1453 1452 1451 1450 1448 1447 1446 1444 1443 1442 1441 1440 1440 1439 1438 1438 1437 1437 1437 1437 1437 1437 1438 1438 1439 1439 1440 1440 1440 1441 1441
1486 1484 1473 1463 1461 1462 1463 1459 1456 1456 1453 1453 1452 1451 1450 1449 1449 1447 1446 1445 1443 1441 1440 1438 1437 1436 1435 1434 1434 1433 1432 1432 1432 1432 1432 1433 1433 1433 1434 1434 1434 1434 1435 1435
1485 1481 1473 1459 1459 1458 1461 1458 1451 1451 1450 1450 1451 1452 1449 1447 1446 1445 1444 1442 1441 1439 1437 1435 1434 1433 1431 1430 1430 1429 1429 1428 1428 1428 1428 1428 1428 1428 1428 1429 1429 1429 1429 1430
1480 1478 1468 1459 1457 1458 1462 1454 1449 1447 1447 1448 1449 1449 1447 1445 1444 1443 1442 1440 1439 1437 1435 1433 1431 1430 1428 1428 1427 1426 1425 1425 1424 1424 1424 1424 1424 1423 1423 1423 1423 1424 1424 1424
1477 1476 1465 1456 1457 1456 1451 1448 1447 1446 1446 1446 1446 1445 1444 1443 1442 1441 1439 1438 1436 1434 1432 1431 1429 1428 1426 1425 1424 1423 1422 1421 1421 1420 1420 1419 1419 1419 1419 1418 1418 1418 1419 1419
1463 1458 1451 1450 1449 1448 1448 1447 1445 1445 1444 1444 1443 1443 1442 1441 1440 1439 1438 1436 1434 1432 1430 1428 1427 1425 1423 1422 1421 1419 1418 1417 1417 1416 1416 1416 1415 1414 1414 1414 1414 1413 1414 1414
1458 1451 1448 1447 1446 1446 1445 1445 1444 1443 1443 1442 1441 1440 1439 1438 1437 1436 1435 1434 1432 1430 1428 1426 1425 1423 1421 1419 1417 1416 1414 1414 1413 1413 1412 1412 1411 1411 1410 1410 1410 1409 1409 1409
1453 1448 1446 1443 1443 1443 1443 1442 1441 1441 1440 1439 1438 1437 1436 1435 1434 1433 1432 1431 1429 1428 1426 1424 1422 1420 1418 1417 1415 1413 1412 1411 1410 1409 1409 1408 1408 1408 1407 1407 1407 1406 1406 1406
1444 1441 1442 1440 1440 1440 1440 1439 1439 1438 1437 1437 1436 1435 1434 1433 1432 1431 1430 1428 1427 1425 1423 1421 1420 1418 1416 1414 1412 1411 1409 1408 1407 1406 1406 1405 1404 1404 1403 1404 1403 1403 1402 1403
1438 1438 1438 1437 1437 1437 1437 1437 1436 1436 1435 1434 1434 1433 1432 1430 1429 1428 1427 1426 1424 1422 1421 1419 1417 1415 1413 1412 1410 1408 1407 1406 1405 1404 1403 1402 1401 1400 1399 1399 1399 1399 1399 1398
1435 1436 1435 1435 1435 1435 1435 1434 1434 1434 1433 1432 1431 1431 1429 1428 1427 1426 1425 1423 1422 1420 1419 1417 1415 1413 1411 1409 1408 1406 1405 1404 1403 1402 1401 1400 1399 1398 1397 1396 1395 1394 1394 1394
1433 1433 1433 1433 1433 1433 1432 1432 1432 1431 1431 1430 1429 1428 1427 1426 1424 1423 1422 1421 1420 1418 1416 1415 1413 1411 1409 1408 1406 1405 1403 1402 1401 1400 1399 1398 1397 1396 1395 1394 1393 1392 1391 1391
1430 1430 1430 1430 1430 1430 1430 1430 1429 1428 1428 1427 1427 1426 1425 1424 1423 1422 1420 1419 1418 1416 1414 1413 1411 1410 1408 1406 1405 1403 1402 1401 1400 1398 1397 1395 1394 1393 1392 1391 1390 1389 1388 1388
1428 1428 1427 1427 1427 1427 1427 1427 1427 1426 1426 1425 1425 1424 1423 1422 1421 1419 1418 1417 1416 1414 1413 1411 1410 1408 1406 1405 1403 1402 1400 1399 1398 1396 1395 1394 1392 1391 1390 1389 1388 1386 1386 1385
1426 1426 1425 1425 1425 1425 1425 1425 1425 1424 1424 1423 1422 1422 1421 1419 1418 1417 1416 1415 1414 1413 1411 1410 1408 1406 1405 1403 1402 1400 1399 1397 1396 1395 1393 1392 1391 1389 1388 1387 1385 1384 1383 1382
1424 1424 1424 1424 1423 1423 1423 1423 1422 1422 1422 1421 1420 1419 1419 1418 1416 1415 1414 1412 1411 1410 1409 1407 1406 1405 1403 1402 1400 1399 1397 1396 1394 1393 1392 1390 1389 1387 1386 1385 1383 1382 1381 1379
1422 1422 1422 1422 1422 1421 1421 1421 1420 1420 1420 1419 1418 1417 1416 1416 1414 1413 1412 1410 1409 1408 1406 1405 1404 1402 1401 1400 1399 1397 1396 1394 1392 1391 1389 1388 1386 1385 1384 1383 1381 1380 1378 1377
1420 1420 1420 1420 1420 1420 1419 1419 1419 1418 1418 1417 1416 1415 1414 1413 1412 1411 1409 1408 1407 1406 1405 1403 1402 1400 1399 1398 1397 1395 1394 1392 1390 1389 1387 1386 1384 1383 1382 1380 1379 1377 1376 1375
1419 1418 1418 1418 1418 1418 1417 1417 1417 1416 1416 1415 1414 1413 1412 1411 1410 1409 1407 1406 1405 1404 1402 1401 1400 1398 1397 1396 1395 1393 1391 1390 1388 1387 1385 1384 1382 1381 1379 1378 1377 1375 1374 1373
1417 1417 1417 1416 1416 1416 1415 1415 1415 1414 1414 1413 1412 1411 1410 1409 1408 1406 1405 1404 1402 1401 1400 1399 1398 1397 1395 1394 1392 1391 1389 1388 1386 1385 1383 1382 1380 1379 1377 1375 1374 1373 1371 1370
1415 1415 1415 1414 1414 1413 1413 1413 1413 1412 1411 1411 1410 1409 1407 1406 1405 1404 1403 1401 1400 1399 1397 1396 1395 1394 1393 1391 1390 1388 1387 1385 1384 1382 1381 1379 1378 1376 1375 1373 1371 1370 1369 1368
1414 1413 1413 1412 1412 1411 1411 1410 1410 1410 1409 1408 1407 1406 1406 1404 1403 1401 1400 1399 1398 1396 1395 1394 1393 1391 1390 1388 1387 1386 1384 1383 1381 1380 1378 1376 1375 1373 1372 1371 1369 1368 1366 1365
1412 1411 1411 1410 1410 1409 1409 1408 1407 1407 1406 1405 1405 1404 1403 1402 1401 1399 1398 1397 1395 1394 1393 1391 1390 1389 1387 1386 1384 1383 1381 1380 1379 1377 1376 1374 1372 1371 1369 1368 1366 1365 1364 1362
1409 1409 1408 1408 1407 1407 1406 1406 1405 1405 1404 1403 1402 1401 1400 1399 1398 1397 1396 1394 1393 1391 1390 1388 1387 1386 1384 1383 1381 1380 1378 1377 1375 1374 1372 1371 1369 1367 1366 1364 1363 1362 1360 1359